Location: Unspecified
(43.4354°N, 0.0000°E)
Time: 04:15:44
(UTC+00:00)

Transit 2A - Pass Details

Date: 21 June 2019
Orbit: 600 x 959 km, 66.7° (Epoch: 13 October)

Event Time Altitude Azimuth Distance (km) Brightness Sun altitude
Rises 08:00:11 0° 334° (NNW) 3,489 9.2 37.1°
Reaches altitude 10° 08:03:12 10° 346° (NNW) 2,488 8.6 37.6°
Maximum altitude 08:07:57 26° 43° (NE) 1,530 8.4 38.5°
Drops below altitude 10° 08:12:19 10° 99° (E) 2,273 9.7 39.3°
Sets 08:14:57 0° 112° (ESE) 3,130 10.0 39.7°
